Weather History for Windom, MN

Change the Weather History Date:

Sunday, February 10, 2013

  Actual Average Record
Temperature  
Mean Temperature 30 °F -  
Max Temperature 35 °F 26 °F 55 °F (1977)
Min Temperature 26 °F 8 °F -26 °F (1972)
Degree Days  
Heating Degree Days 34    
Moisture  
Dew Point 31 °F    
Average Humidity 97    
Maximum Humidity 100    
Minimum Humidity 93    
Precipitation  
Precipitation 0.23 in - - ()
Sea Level Pressure  
Sea Level Pressure 29.40 in    
Wind  
Wind Speed 12 mph (ESE)    
Max Wind Speed 25 mph    
Max Gust Speed 37 mph    
Visibility 2 miles    
Events Fog , Snow , Thunderstorm    
Averages and records for this station are not official NWS values.
T = Trace of Precipitation, MM = Missing Value Source: NWS Daily Summary

Daily Weather History Graph

Daily Weather History Graph

Search for Another Location

Airport:

Trip Planner

Search our weather history database for the weather conditions in past years. The results will help you decide how hot, cold, wet, or windy it might be!

Date:

Astronomy

Feb. 10, 2013 Rise Set
Actual Time 7:26 AM CST 5:43 PM CST
Civil Twilight 6:56 AM CST 6:13 PM CST
Nautical Twilight 6:22 AM CST 6:47 PM CST
Astronomical Twilight 5:48 AM CST 7:21 PM CST
Moon 7:13 AM CST (2/10) 6:39 PM CST (2/10)
Length of Visible Light 11h 17m
Length of Day
10h 17m
New Moon, 0% of the Moon is Illuminated
Feb 10
New Moon
Feb 17
First Quarter
Feb 25
Full
Mar 4
Last Quarter
Mar 11
New

Hourly Weather History & Observations

Time (CST) Temp. Windchill Dew Point Humidity Pressure Visibility Wind Dir Wind Speed Gust Speed Precip Events Conditions
12:12 AM 30.2 °F 21.3 °F 28.4 °F 93% 29.78 in 4.0 mi ESE 10.4 mph 17.3 mph N/A   Overcast
12:33 AM 30.2 °F 19.3 °F 28.4 °F 93% 29.76 in 4.0 mi ESE 15.0 mph - N/A   Overcast
12:53 AM 30.2 °F 20.8 °F 28.4 °F 93% 29.76 in 4.0 mi ESE 11.5 mph 16.1 mph N/A   Overcast
1:12 AM 30.2 °F 21.3 °F 28.4 °F 93% 29.75 in 4.0 mi SE 10.4 mph - N/A   Overcast
1:33 AM 30.2 °F 20.2 °F 30.2 °F 100% 29.73 in 4.0 mi ESE 12.7 mph - N/A   Overcast
1:53 AM 30.2 °F 20.8 °F 30.2 °F 100% 29.71 in 4.0 mi ESE 11.5 mph 18.4 mph N/A   Overcast
2:33 AM 30.2 °F 20.8 °F 30.2 °F 100% 29.67 in 4.0 mi ESE 11.5 mph 17.3 mph 0.01 in   Overcast
2:53 AM 30.2 °F 20.2 °F 30.2 °F 100% 29.68 in 4.0 mi ESE 12.7 mph 20.7 mph 0.01 in   Overcast
3:12 AM 30.2 °F 19.8 °F 30.2 °F 100% 29.66 in 4.0 mi ESE 13.8 mph 17.3 mph N/A   Overcast
3:33 AM 30.2 °F 20.2 °F 30.2 °F 100% 29.65 in 2.5 mi ESE 12.7 mph 17.3 mph N/A   Overcast
3:53 AM 32.0 °F 21.6 °F 30.2 °F 93% 29.61 in 2.0 mi ESE 15.0 mph - N/A   Overcast
4:12 AM 32.0 °F 23.0 °F 30.2 °F 93% 29.59 in 3.0 mi ESE 11.5 mph 20.7 mph N/A   Overcast
4:33 AM 32.0 °F 24.8 °F 30.2 °F 93% 29.57 in 4.0 mi East 8.1 mph - N/A   Overcast
4:53 AM 32.0 °F 21.6 °F 30.2 °F 93% 29.54 in 4.0 mi East 15.0 mph 21.9 mph N/A   Overcast
5:12 AM 32.0 °F 21.6 °F 30.2 °F 93% 29.58 in 3.0 mi ESE 15.0 mph - N/A   Overcast
5:33 AM 32.0 °F 20.8 °F 30.2 °F 93% 29.56 in 2.0 mi ESE 17.3 mph 23.0 mph N/A Snow Light Snow
5:52 AM 32.0 °F 21.6 °F 32.0 °F 100% 29.50 in 2.5 mi East 15.0 mph 20.7 mph 0.06 in   Overcast
6:12 AM 32.0 °F 20.5 °F 32.0 °F 100% 29.49 in 4.0 mi ESE 18.4 mph - 0.02 in   Overcast
6:33 AM 32.0 °F 23.0 °F 32.0 °F 100% 29.45 in 2.0 mi East 11.5 mph 20.7 mph 0.02 in Thunderstorm Overcast
6:52 AM 32.0 °F 22.1 °F 32.0 °F 100% 29.43 in 3.0 mi East 13.8 mph 18.4 mph 0.02 in   Overcast
7:12 AM 32.0 °F 21.2 °F 32.0 °F 100% 29.48 in 2.0 mi ESE 16.1 mph 20.7 mph 0.05 in   Overcast
7:33 AM 32.0 °F 23.0 °F 32.0 °F 100% 29.45 in 1.0 mi East 11.5 mph 18.4 mph 0.06 in Snow Light Snow
7:52 AM 32.0 °F 22.5 °F 32.0 °F 100% 29.42 in 5.0 mi East 12.7 mph 17.3 mph 0.07 in   Overcast
8:12 AM 33.8 °F 24.8 °F 32.0 °F 93% 29.44 in 1.5 mi ESE 12.7 mph 17.3 mph 0.02 in Snow Light Snow
8:33 AM 33.8 °F 24.3 °F 32.0 °F 93% 29.43 in 0.5 mi ESE 13.8 mph 19.6 mph 0.04 in Snow Light Snow
8:52 AM 33.8 °F 25.3 °F 32.0 °F 93% 29.42 in 0.8 mi ESE 11.5 mph - 0.06 in Snow Light Snow
9:12 AM 33.8 °F 25.8 °F 32.0 °F 93% 29.41 in 0.8 mi ESE 10.4 mph 17.3 mph N/A Snow Light Snow
9:33 AM 33.8 °F 25.3 °F 32.0 °F 93% 29.39 in 0.8 mi ESE 11.5 mph 17.3 mph 0.01 in Snow Light Snow
9:52 AM 33.8 °F 25.8 °F 32.0 °F 93% 29.38 in 0.8 mi ESE 10.4 mph - 0.01 in Snow Light Snow
10:12 AM 33.8 °F 26.4 °F 32.0 °F 93% 29.36 in 1.5 mi East 9.2 mph - N/A Snow Light Snow
10:33 AM 33.8 °F 27.0 °F 33.8 °F 100% 29.35 in 2.5 mi ESE 8.1 mph - N/A Snow Light Snow
10:52 AM 33.8 °F 25.8 °F 32.0 °F 93% 29.34 in 4.0 mi ESE 10.4 mph - N/A Snow Light Snow
11:12 AM 33.8 °F 26.4 °F 33.8 °F 100% 29.33 in 2.5 mi ESE 9.2 mph - N/A Snow Light Snow
11:33 AM 33.8 °F 23.9 °F 33.8 °F 100% 29.31 in 10.0 mi ESE 15.0 mph 18.4 mph N/A   Overcast
11:52 AM 33.8 °F 25.8 °F 33.8 °F 100% 29.30 in 10.0 mi SE 10.4 mph - N/A   Overcast
12:12 PM 33.8 °F 27.0 °F 33.8 °F 100% 29.29 in 3.0 mi ESE 8.1 mph - N/A   Overcast
12:33 PM 33.8 °F 26.4 °F 33.8 °F 100% 29.27 in 1.2 mi SE 9.2 mph - N/A   Overcast
12:52 PM 35.6 °F 30.7 °F 33.8 °F 93% 29.26 in 0.8 mi SE 5.8 mph - N/A   Overcast
1:13 PM 35.6 °F 28.6 °F 35.6 °F 100% 29.25 in 0.5 mi SE 9.2 mph - N/A Fog Fog
1:33 PM 35.6 °F 29.9 °F 35.6 °F 100% 29.24 in 0.8 mi SE 6.9 mph - N/A   Overcast
1:52 PM 35.6 °F 29.2 °F 35.6 °F 100% 29.23 in 0.5 mi SE 8.1 mph - N/A Fog Fog
2:13 PM 35.6 °F 28.6 °F 35.6 °F 100% 29.21 in 0.5 mi SE 9.2 mph - N/A Fog Fog
2:33 PM 35.6 °F - 35.6 °F 100% 29.22 in 0.2 mi Calm Calm - N/A Fog Fog
2:52 PM 35.6 °F - 35.6 °F 100% 29.22 in 0.2 mi Calm Calm - N/A Fog Fog
3:13 PM 35.6 °F - 35.6 °F 100% 29.22 in 0.2 mi Calm Calm - N/A Fog Fog
3:33 PM 35.6 °F - 35.6 °F 100% 29.22 in 0.2 mi Calm Calm - N/A Fog Fog
3:52 PM 35.6 °F - 35.6 °F 100% 29.22 in 0.2 mi Calm Calm - N/A Snow Light Snow
4:13 PM 35.6 °F - 35.6 °F 100% 29.22 in 0.2 mi Calm Calm - N/A Snow Light Snow
4:33 PM 35.6 °F - 35.6 °F 100% 29.22 in 0.2 mi Calm Calm - N/A Fog Fog
4:52 PM 33.8 °F - 33.8 °F 100% 29.22 in 0.2 mi Calm Calm - N/A Snow Light Snow
5:13 PM 33.8 °F - 33.8 °F 100% 29.22 in 0.2 mi Calm Calm - N/A Snow Light Snow
5:33 PM 33.8 °F 25.3 °F 33.8 °F 100% 29.24 in 0.2 mi NNW 11.5 mph - N/A   Overcast
5:52 PM 33.8 °F 24.3 °F 33.8 °F 100% 29.24 in 0.5 mi NW 13.8 mph - N/A   Overcast
6:12 PM - - - N/A% 29.25 in 3.0 mi NNW 16.1 mph - N/A   Overcast
6:33 PM - - - N/A% 29.25 in 1.8 mi NW 17.3 mph - N/A   Unknown
6:52 PM 32.0 °F 20.1 °F - N/A% 29.26 in 2.5 mi NW 19.6 mph 26.5 mph N/A Snow Light Snow
7:12 PM 28.4 °F 15.1 °F - N/A% 29.26 in 3.0 mi NW 20.7 mph 27.6 mph N/A Snow Light Snow
7:33 PM 28.4 °F 15.4 °F 28.4 °F 100% 29.29 in 1.8 mi NW 19.6 mph 26.5 mph N/A Snow Light Snow
7:52 PM 26.6 °F 11.7 °F 26.6 °F 100% 29.28 in 2.0 mi WNW 24.2 mph 31.1 mph N/A Snow Light Snow
8:12 PM 26.6 °F 11.4 °F 26.6 °F 100% 29.30 in 2.0 mi WNW 25.3 mph 28.8 mph N/A Snow Light Snow
8:33 PM 26.6 °F 12.0 °F 26.6 °F 100% 29.32 in 3.0 mi WNW 23.0 mph 29.9 mph N/A Snow Light Snow
8:52 PM 26.6 °F 11.7 °F 24.8 °F 93% 29.33 in 4.0 mi WNW 24.2 mph 36.8 mph N/A   Overcast
9:12 PM 26.6 °F 11.7 °F 24.8 °F 93% 29.34 in 3.0 mi WNW 24.2 mph 31.1 mph N/A Snow Light Snow
9:33 PM 26.6 °F 11.4 °F 24.8 °F 93% 29.34 in 2.5 mi NW 25.3 mph 32.2 mph N/A Snow Light Snow
9:52 PM 26.6 °F 12.0 °F 24.8 °F 93% 29.36 in 1.5 mi NW 23.0 mph 31.1 mph N/A Snow Light Snow
10:12 PM 26.6 °F 12.0 °F 24.8 °F 93% 29.37 in 2.5 mi WNW 23.0 mph 29.9 mph N/A Snow Light Snow
10:33 PM 26.6 °F 12.7 °F 24.8 °F 93% 29.39 in 2.5 mi WNW 20.7 mph 31.1 mph N/A Snow Light Snow
10:52 PM 26.6 °F 12.7 °F 24.8 °F 93% 29.41 in 2.5 mi WNW 20.7 mph 29.9 mph N/A Snow Light Snow
11:12 PM 26.6 °F 12.0 °F 24.8 °F 93% 29.42 in 3.0 mi WNW 23.0 mph 29.9 mph N/A Snow Light Snow
11:33 PM 26.6 °F 12.0 °F 24.8 °F 93% 29.43 in 2.0 mi WNW 23.0 mph 32.2 mph N/A Snow Light Snow
11:52 PM 26.6 °F 11.4 °F 24.8 °F 93% 29.44 in 1.2 mi WNW 25.3 mph 31.1 mph N/A Snow Light Snow